Regional Weather Roundup
Issued by NWS

Home | Current Version | Previous Version | Graphics & Text | Print | Product List | Glossary On
Versions: 1 2 3 4 5 6 7 8 9 10 11 12 13 14 15 16 17 18 19 20 21 22 23 24 25 26 27 28 29 30 31 32 33 34 35 36 37 38 39 40 41 42 43 44 45 46 47 48 49 50
000
ASUS45 KABQ 071310
RWRNM
NEW MEXICO REGIONAL WEATHER ROUNDUP
NATIONAL WEATHER SERVICE ALBUQUERQUE NM
600 AM MST SUN FEB 07 2016

NOTE: "FAIR" MEANS FEW OR NO CLOUDS BELOW 12,000 FEET AGL WITH NO
       SIGNIFICANT WEATHER OR OBSTRUCTIONS TO VISION.

      THIS PRODUCT IS RELEASED AS TWO VERSIONS.  ONE VERSION NEAR
      THE TOP OF THE HOUR CONTAINING PRELIMINARY DATA FROM ALBUQUERQUE
      AND OTHER STATIONS.  A FINAL VERSION WITH ADDITIONAL DATA IS
      ISSUED ABOUT 10 MINUTES AFTER THE HOUR.

NMZ501-503-504-510>518-071400-
NORTHWEST PLATEAU/NORTHCENTRAL MOUNTAINS

CITY           SKY/WX    TMP DP  RH WIND       PRES   REMARKS
FARMINGTON     CLOUDY    14  11  87 NE5       30.41R WCI   6
LOS ALAMOS     CLOUDY    22  15  75 CALM      30.30R
SANTA FE       CLOUDY    26  14  60 NW12      30.28S WCI  16
TAOS           CLOUDY     7   1  78 N7        30.34R WCI  -5
ANGEL FIRE     FAIR       4   1  85 N13       30.31R WCI -13

$$
NMZ402-403-502-505>509-071400-
WESTCENTRAL MOUNTAINS/SOUTHWEST MOUNTAINS

CITY           SKY/WX    TMP DP  RH WIND       PRES   REMARKS
GALLUP         CLEAR     15  11  83 CALM      30.39R
GRANTS         CLEAR     11   9  89 NW7       30.38S WCI   1
SILVER CITY      N/A     25  14  63 N10       30.31S WCI  15

$$
NMZ407-409-411-412-071400-
SOUTHERN DESERTS

CITY           SKY/WX    TMP DP  RH WIND       PRES   REMARKS
LORDSBURG      FAIR      21  10  63 CALM      30.30S
DEMING         MOCLDY    20   7  57 NW3       30.31R
LAS CRUCES     PTCLDY    34   8  34 N9        30.30S WCI  26
HOLLOMAN AFB   CLOUDY    27   6  40 N7        30.27F WCI  19
ALAMOGORDO     CLOUDY    25   9  50 SE6       30.28S WCI  18
T OR C         CLEAR     28   8  43 CALM      30.31S

$$
NMZ519>523-071400-
CENTRAL VALLEYS/CENTRAL HIGHLANDS

CITY           SKY/WX    TMP DP  RH WIND       PRES   REMARKS
ALBUQUERQUE    CLOUDY    33  14  45 N8        30.34R WCI  26
DOUBLE EAGLE   CLEAR     32  12  43 NW15G21   30.32S WCI  22
MORIARTY ARPT  FAIR      24  15  67 N6        30.30R WCI  17
CLINES CORNERS CLOUDY    26  14  60 NW28G36   30.21R WCI  10
BELEN          FAIR      21  12  70 CALM      30.34R
SOCORRO        FAIR      27  13  54 N12       30.32F WCI  17

$$
NMZ524>526-539-540-071400-
SOUTHCENTRAL MOUNTAINS

CITY           SKY/WX    TMP DP  RH WIND       PRES   REMARKS
RUIDOSO          N/A     32   7  34 E8        30.28R WCI  25

$$
NMZ527>531-071400-
NORTHEAST HIGHLANDS/NORTHEAST PLAINS

CITY           SKY/WX    TMP DP  RH WIND       PRES   REMARKS
LAS VEGAS      CLOUDY    30  13  49 N9        30.20R WCI  22
RATON          CLOUDY    24  14  65 NE10      30.19R WCI  14
CLAYTON        CLOUDY    37  17  44 N14       30.19R WCI  28

$$
NMZ532>537-071400-
EASTCENTRAL PLAINS

CITY           SKY/WX    TMP DP  RH WIND       PRES   REMARKS
TUCUMCARI      CLOUDY    26  17  68 CALM      30.14R
CANNON AFB     CLOUDY    30  17  58 NW10      30.12R WCI  21
CLOVIS AIRPORT CLOUDY    30  16  55 NW8       30.13R WCI  23

$$
NMZ028-029-538-071400-
SOUTHEAST PLAINS

CITY           SKY/WX    TMP DP  RH WIND       PRES   REMARKS
ROSWELL        CLOUDY    25  13  60 CALM      30.18R
ARTESIA        CLOUDY    32  12  43 W10       30.18S WCI  24
CARLSBAD       CLOUDY    27  13  55 CALM      30.17F
HOBBS          CLEAR     37  10  32 W10       30.17R WCI  30


$$



USA.gov is the U.S. government's official web portal to all federal, state and local government web resources and services.